Time,TemperatureF,DewpointF,PressureIn,WindDirection,WindDirectionDegrees,WindSpeedMPH,WindSpeedGustMPH,Humidity,HourlyPrecipIn,Conditions,Clouds,dailyrainin,SoftwareType,DateUTC
2013-05-01 00:02:00,54.0,41.0,-100.00,NW,320,14.0,18.0,61,0.00,,,0.00,,2013-05-01 05:02:00,
2013-05-01 00:11:00,54.0,41.0,-100.00,NW,320,12.0,14.0,62,0.00,,,0.00,,2013-05-01 05:11:00,
2013-05-01 00:21:00,54.0,41.0,-100.00,NNW,335,9.0,14.0,62,0.00,,,0.00,,2013-05-01 05:21:00,
2013-05-01 00:32:00,53.0,41.0,-100.00,NW,325,9.0,15.0,63,0.00,,,0.00,,2013-05-01 05:32:00,
2013-05-01 00:41:00,53.0,41.0,-100.00,NNW,330,10.0,16.0,64,0.00,,,0.00,,2013-05-01 05:41:00,
2013-05-01 00:52:00,53.0,41.0,-100.00,NNW,335,12.0,15.0,64,0.00,,,0.00,,2013-05-01 05:52:00,
2013-05-01 01:02:00,53.0,41.0,-100.00,NW,325,12.0,16.0,65,0.00,,,0.00,,2013-05-01 06:02:00,
2013-05-01 01:12:00,53.0,41.0,-100.00,NNW,330,12.0,16.0,65,0.00,,,0.00,,2013-05-01 06:12:00,
2013-05-01 01:22:00,52.0,41.0,-100.00,NNW,340,12.0,19.0,66,0.00,,,0.00,,2013-05-01 06:22:00,
2013-05-01 01:32:00,52.0,41.0,-100.00,NW,320,12.0,17.0,66,0.00,,,0.00,,2013-05-01 06:32:00,
2013-05-01 01:42:00,52.0,41.0,-100.00,NNW,330,12.0,16.0,67,0.00,,,0.00,,2013-05-01 06:42:00,
2013-05-01 01:51:00,52.0,41.0,-100.00,NNW,345,15.0,19.0,68,0.00,,,0.00,,2013-05-01 06:51:00,
2013-05-01 02:01:00,51.0,43.0,-100.00,NW,325,10.0,18.0,70,0.00,,,0.00,,2013-05-01 07:01:00,
2013-05-01 02:11:00,51.0,41.0,-100.00,NW,320,14.0,19.0,70,0.00,,,0.00,,2013-05-01 07:11:00,
2013-05-01 02:21:00,51.0,41.0,-100.00,NW,320,12.0,19.0,69,0.00,,,0.00,,2013-05-01 07:21:00,
2013-05-01 02:32:00,50.0,41.0,-100.00,NW,320,19.0,25.0,68,0.00,,,0.00,,2013-05-01 07:32:00,
2013-05-01 02:42:00,49.0,39.0,-100.00,NW,315,17.0,22.0,68,0.00,,,0.00,,2013-05-01 07:42:00,
2013-05-01 02:52:00,49.0,39.0,-100.00,NNW,340,16.0,21.0,68,0.00,,,0.00,,2013-05-01 07:52:00,
2013-05-01 03:01:00,48.0,41.0,-100.00,NNW,340,9.0,18.0,73,0.00,,,0.00,,2013-05-01 08:01:00,
2013-05-01 03:11:00,47.0,41.0,-100.00,NNW,340,7.0,12.0,80,0.00,,,0.00,,2013-05-01 08:11:00,
2013-05-01 03:21:00,47.0,43.0,-100.00,NW,310,7.0,11.0,83,0.00,,,0.00,,2013-05-01 08:21:00,
2013-05-01 03:32:00,47.0,39.0,-100.00,NW,325,13.0,19.0,75,0.00,,,0.00,,2013-05-01 08:32:00,
2013-05-01 03:42:00,47.0,39.0,-100.00,NW,325,13.0,18.0,72,0.00,,,0.00,,2013-05-01 08:42:00,
2013-05-01 03:52:00,47.0,39.0,-100.00,NW,320,12.0,17.0,75,0.00,,,0.00,,2013-05-01 08:52:00,
2013-05-01 04:01:00,46.0,39.0,-100.00,NW,325,9.0,15.0,78,0.00,,,0.00,,2013-05-01 09:01:00,
2013-05-01 04:11:00,46.0,41.0,-100.00,NW,315,9.0,10.0,81,0.00,,,0.00,,2013-05-01 09:11:00,
2013-05-01 04:21:00,45.0,41.0,-100.00,NNW,330,11.0,13.0,85,0.00,,,0.00,,2013-05-01 09:21:00,
2013-05-01 04:33:00,44.0,41.0,-100.00,NW,325,7.0,14.0,84,0.00,,,0.00,,2013-05-01 09:33:00,
2013-05-01 04:42:00,44.0,41.0,-100.00,NNW,345,7.0,12.0,86,0.00,,,0.00,,2013-05-01 09:42:00,
2013-05-01 04:52:00,44.0,41.0,-100.00,North,0,6.0,9.0,89,0.00,,,0.00,,2013-05-01 09:52:00,
2013-05-01 05:02:00,44.0,41.0,-100.00,North,10,4.0,6.0,90,0.00,,,0.00,,2013-05-01 10:02:00,
2013-05-01 05:12:00,44.0,43.0,-100.00,WNW,290,7.0,9.0,93,0.00,,,0.00,,2013-05-01 10:12:00,
2013-05-01 05:22:00,44.0,43.0,-100.00,WNW,300,9.0,11.0,92,0.00,,,0.00,,2013-05-01 10:22:00,
2013-05-01 05:33:00,44.0,41.0,-100.00,NW,305,10.0,11.0,90,0.00,,,0.00,,2013-05-01 10:33:00,
2013-05-01 05:42:00,44.0,41.0,-100.00,WNW,300,14.0,16.0,89,0.00,,,0.00,,2013-05-01 10:42:00,
2013-05-01 05:52:00,43.0,41.0,-100.00,WNW,295,11.0,17.0,89,0.00,,,0.00,,2013-05-01 10:52:00,
2013-05-01 06:02:00,43.0,41.0,-100.00,WNW,300,10.0,14.0,89,0.00,,,0.00,,2013-05-01 11:02:00,
2013-05-01 06:11:00,43.0,41.0,-100.00,WNW,300,9.0,12.0,90,0.00,,,0.00,,2013-05-01 11:11:00,
2013-05-01 06:22:00,42.0,41.0,-100.00,NW,305,11.0,12.0,91,0.00,,,0.00,,2013-05-01 11:22:00,
2013-05-01 06:32:00,42.0,41.0,-100.00,NW,305,9.0,14.0,91,0.00,,,0.00,,2013-05-01 11:32:00,
2013-05-01 06:42:00,42.0,41.0,-100.00,WNW,295,11.0,13.0,91,0.00,,,0.00,,2013-05-01 11:42:00,
2013-05-01 06:51:00,42.0,41.0,-100.00,NW,305,10.0,14.0,92,0.00,,,0.00,,2013-05-01 11:51:00,
2013-05-01 07:01:00,42.0,41.0,-100.00,WNW,300,13.0,18.0,92,0.00,,,0.00,,2013-05-01 12:01:00,
2013-05-01 07:11:00,42.0,41.0,-100.00,NW,305,13.0,19.0,92,0.00,,,0.00,,2013-05-01 12:11:00,
2013-05-01 07:21:00,42.0,39.0,-100.00,WNW,300,15.0,18.0,92,0.00,,,0.00,,2013-05-01 12:21:00,
2013-05-01 07:31:00,40.0,39.0,-100.00,WNW,300,16.0,22.0,97,0.00,,,0.00,,2013-05-01 12:31:00,
2013-05-01 07:52:00,38.0,37.0,-100.00,NW,320,13.0,20.0,99,0.00,,,0.00,,2013-05-01 12:52:00,
2013-05-01 08:11:00,36.0,36.0,-100.00,NW,315,10.0,17.0,99,0.00,,,0.00,,2013-05-01 13:11:00,
2013-05-01 08:21:00,36.0,36.0,-100.00,NW,310,9.0,12.0,99,0.00,,,0.00,,2013-05-01 13:21:00,
2013-05-01 08:32:00,36.0,36.0,-100.00,NW,305,8.0,10.0,99,0.00,,,0.00,,2013-05-01 13:32:00,
2013-05-01 08:42:00,36.0,36.0,-100.00,NW,315,5.0,8.0,99,0.00,,,0.00,,2013-05-01 13:42:00,
2013-05-01 09:21:00,36.0,36.0,-100.00,NW,305,7.0,9.0,99,0.00,,,0.00,,2013-05-01 14:21:00,
2013-05-01 09:32:00,36.0,36.0,-100.00,NW,320,9.0,12.0,99,0.00,,,0.00,,2013-05-01 14:32:00,
2013-05-01 09:51:00,36.0,36.0,-100.00,NW,325,9.0,12.0,99,0.00,,,0.00,,2013-05-01 14:51:00,
2013-05-01 10:01:00,36.0,36.0,-100.00,NW,325,9.0,12.0,99,0.00,,,0.00,,2013-05-01 15:01:00,
2013-05-01 10:11:00,36.0,36.0,-100.00,NW,320,10.0,14.0,99,0.00,,,0.00,,2013-05-01 15:11:00,
2013-05-01 10:21:00,36.0,36.0,-100.00,NNW,330,7.0,11.0,99,0.00,,,0.00,,2013-05-01 15:21:00,
2013-05-01 10:33:00,36.0,36.0,-100.00,NNW,330,7.0,9.0,99,0.00,,,0.00,,2013-05-01 15:33:00,
2013-05-01 10:43:00,36.0,36.0,-100.00,NW,325,8.0,11.0,99,0.00,,,0.00,,2013-05-01 15:43:00,
2013-05-01 10:53:00,36.0,36.0,-100.00,NW,325,8.0,11.0,99,0.00,,,0.00,,2013-05-01 15:53:00,
2013-05-01 11:03:00,36.0,36.0,-100.00,NW,325,8.0,11.0,99,0.00,,,0.00,,2013-05-01 16:03:00,
2013-05-01 11:12:00,36.0,36.0,-100.00,NW,325,8.0,11.0,99,0.00,,,0.00,,2013-05-01 16:12:00,
2013-05-01 11:22:00,36.0,36.0,-100.00,NW,325,8.0,11.0,99,0.00,,,0.00,,2013-05-01 16:22:00,